QPF
0.01 0.01 0.02 0.02 0.02 0.01 0.01 0.02 0.02 0.01 0.02 0.02 0.01 0.01 0.01 0.00 0.01 0.01 0.00 0.00 0.01 0.00 0.00 0.00 0.00 0.00 0.00 0.01 0.01 0.01 0.01 0.02 0.02 0.01 0.01 0.02 0.02 0.01 0.01 0.01 0.02 0.03 0.03 0.03
0.01 0.01 0.01 0.02 0.01 0.01 0.01 0.01 0.02 0.02 0.01 0.01 0.01 0.01 0.01 0.01 0.00 0.00 0.00 0.00 0.00 0.00 0.00 0.00 0.00 0.00 0.00 0.00 0.00 0.01 0.01 0.01 0.02 0.02 0.02 0.02 0.01 0.01 0.01 0.02 0.02 0.02 0.02 0.02
0.01 0.01 0.01 0.03 0.02 0.01 0.02 0.01 0.01 0.01 0.02 0.01 0.02 0.02 0.02 0.02 0.02 0.01 0.00 0.00 0.00 0.00 0.00 0.00 0.00 0.00 0.00 0.00 0.00 0.01 0.01 0.01 0.01 0.01 0.01 0.01 0.01 0.01 0.01 0.01 0.01 0.01 0.02 0.02
0.02 0.01 0.02 0.02 0.02 0.01 0.01 0.02 0.02 0.03 0.02 0.02 0.02 0.03 0.02 0.02 0.01 0.01 0.00 0.00 0.00 0.00 0.00 0.00 0.00 0.00 0.00 0.00 0.00 0.00 0.00 0.01 0.01 0.01 0.00 0.00 0.00 0.00 0.00 0.00 0.01 0.01 0.01 0.02
0.02 0.02 0.01 0.01 0.01 0.01 0.02 0.02 0.03 0.05 0.04 0.03 0.01 0.01 0.01 0.01 0.00 0.01 0.00 0.00 0.00 0.00 0.00 0.00 0.00 0.00 0.00 0.00 0.00 0.00 0.01 0.01 0.00 0.01 0.01 0.01 0.00 0.00 0.00 0.01 0.01 0.01 0.01 0.01
0.04 0.03 0.02 0.01 0.00 0.01 0.01 0.02 0.01 0.02 0.03 0.02 0.01 0.00 0.00 0.00 0.01 0.01 0.00 0.00 0.00 0.00 0.00 0.00 0.00 0.00 0.00 0.00 0.00 0.00 0.01 0.01 0.01 0.00 0.01 0.01 0.00 0.01 0.01 0.01 0.01 0.01 0.01 0.01
0.02 0.02 0.01 0.00 0.01 0.01 0.02 0.02 0.00 0.00 0.00 0.00 0.00 0.00 0.00 0.00 0.00 0.01 0.01 0.00 0.00 0.00 0.00 0.00 0.00 0.00 0.00 0.00 0.00 0.01 0.00 0.01 0.01 0.01 0.01 0.01 0.01 0.01 0.01 0.01 0.01 0.01 0.01 0.01
0.02 0.02 0.01 0.00 0.01 0.01 0.01 0.01 0.01 0.00 0.00 0.00 0.00 0.00 0.00 0.00 0.00 0.00 0.00 0.00 0.00 0.00 0.00 0.00 0.00 0.00 0.00 0.00 0.01 0.01 0.00 0.00 0.00 0.01 0.01 0.01 0.01 0.01 0.01 0.02 0.02 0.01 0.01 0.01
0.02 0.01 0.00 0.00 0.01 0.01 0.01 0.01 0.01 0.01 0.00 0.00 0.00 0.00 0.00 0.00 0.00 0.00 0.00 0.00 0.00 0.00 0.00 0.00 0.00 0.00 0.00 0.00 0.00 0.00 0.00 0.00 0.00 0.00 0.00 0.01 0.02 0.01 0.01 0.01 0.01 0.01 0.01 0.01
0.03 0.01 0.00 0.01 0.01 0.01 0.01 0.01 0.01 0.01 0.01 0.00 0.01 0.01 0.01 0.00 0.00 0.00 0.00 0.00 0.00 0.00 0.00 0.00 0.00 0.00 0.00 0.00 0.00 0.00 0.01 0.01 0.01 0.00 0.00 0.01 0.01 0.02 0.02 0.01 0.01 0.01 0.01 0.01
0.02 0.01 0.01 0.01 0.01 0.01 0.01 0.01 0.01 0.02 0.01 0.00 0.01 0.01 0.01 0.01 0.00 0.00 0.00 0.00 0.00 0.00 0.00 0.00 0.00 0.00 0.00 0.00 0.01 0.01 0.01 0.01 0.01 0.01 0.00 0.01 0.01 0.01 0.01 0.01 0.01 0.01 0.01 0.01
0.02 0.02 0.01 0.01 0.01 0.01 0.01 0.01 0.01 0.02 0.01 0.00 0.00 0.01 0.01 0.01 0.00 0.00 0.00 0.01 0.00 0.00 0.00 0.00 0.00 0.01 0.01 0.00 0.01 0.01 0.01 0.01 0.01 0.01 0.01 0.01 0.01 0.02 0.02 0.01 0.01 0.01 0.01 0.01
0.01 0.01 0.01 0.01 0.00 0.01 0.01 0.01 0.01 0.02 0.01 0.01 0.00 0.00 0.00 0.01 0.00 0.00 0.01 0.01 0.01 0.00 0.00 0.00 0.00 0.00 0.00 0.00 0.01 0.01 0.01 0.01 0.01 0.01 0.01 0.02 0.02 0.01 0.01 0.01 0.01 0.01 0.01 0.02
0.01 0.01 0.01 0.01 0.01 0.01 0.01 0.02 0.01 0.01 0.01 0.01 0.01 0.00 0.00 0.00 0.00 0.01 0.01 0.01 0.01 0.00 0.00 0.00 0.00 0.00 0.00 0.00 0.01 0.01 0.01 0.01 0.01 0.01 0.01 0.01 0.01 0.02 0.01 0.01 0.01 0.01 0.01 0.01
0.01 0.01 0.01 0.02 0.02 0.01 0.02 0.02 0.02 0.01 0.01 0.01 0.01 0.01 0.00 0.00 0.01 0.01 0.01 0.01 0.00 0.00 0.00 0.00 0.00 0.00 0.00 0.00 0.00 0.01 0.01 0.01 0.02 0.02 0.01 0.01 0.01 0.01 0.01 0.01 0.01 0.01 0.01 0.01
0.01 0.01 0.01 0.02 0.02 0.02 0.02 0.02 0.02 0.02 0.02 0.02 0.02 0.01 0.01 0.01 0.01 0.01 0.00 0.00 0.00 0.01 0.00 0.00 0.00 0.00 0.00 0.00 0.00 0.01 0.01 0.02 0.02 0.03 0.03 0.02 0.02 0.02 0.02 0.01 0.01 0.01 0.01 0.01
0.01 0.01 0.01 0.01 0.02 0.03 0.03 0.02 0.01 0.01 0.02 0.01 0.01 0.01 0.01 0.01 0.01 0.01 0.00 0.00 0.00 0.01 0.01 0.00 0.00 0.00 0.00 0.01 0.01 0.01 0.01 0.01 0.01 0.01 0.02 0.03 0.03 0.02 0.02 0.02 0.02 0.02 0.01 0.01
0.01 0.00 0.01 0.01 0.02 0.03 0.03 0.03 0.02 0.01 0.01 0.01 0.01 0.00 0.00 0.00 0.00 0.00 0.00 0.00 0.00 0.00 0.01 0.00 0.00 0.00 0.01 0.01 0.01 0.01 0.01 0.01 0.01 0.01 0.01 0.02 0.03 0.03 0.03 0.03 0.02 0.02 0.02 0.01
0.00 0.00 0.00 0.00 0.01 0.02 0.03 0.02 0.02 0.01 0.01 0.01 0.01 0.00 0.00 0.00 0.00 0.00 0.01 0.00 0.00 0.00 0.01 0.01 0.01 0.01 0.01 0.01 0.01 0.01 0.01 0.01 0.01 0.01 0.01 0.01 0.02 0.02 0.02 0.02 0.02 0.02 0.02 0.02
0.01 0.01 0.01 0.00 0.01 0.01 0.02 0.01 0.01 0.01 0.01 0.01 0.01 0.01 0.01 0.01 0.01 0.00 0.01 0.01 0.01 0.01 0.01 0.01 0.01 0.00 0.00 0.00 0.01 0.01 0.01 0.01 0.01 0.01 0.01 0.01 0.02 0.02 0.02 0.02 0.01 0.01 0.01 0.01
0.01 0.01 0.01 0.00 0.00 0.01 0.01 0.01 0.01 0.01 0.01 0.01 0.01 0.01 0.01 0.01 0.01 0.01 0.01 0.02 0.02 0.01 0.01 0.01 0.00 0.00 0.00 0.00 0.01 0.01 0.01 0.01 0.02 0.02 0.02 0.02 0.02 0.02 0.02 0.02 0.02 0.01 0.01 0.01
0.01 0.01 0.00 0.00 0.00 0.00 0.01 0.01 0.01 0.00 0.00 0.00 0.00 0.01 0.01 0.01 0.01 0.01 0.01 0.01 0.01 0.01 0.01 0.01 0.01 0.01 0.01 0.01 0.01 0.01 0.01 0.01 0.02 0.02 0.03 0.03 0.03 0.03 0.03 0.03 0.03 0.03 0.03 0.03
0.01 0.01 0.00 0.00 0.00 0.00 0.00 0.00 0.01 0.01 0.00 0.01 0.01 0.01 0.01 0.01 0.01 0.01 0.01 0.01 0.01 0.01 0.01 0.01 0.01 0.01 0.01 0.01 0.01 0.01 0.01 0.01 0.02 0.03 0.04 0.05 0.05 0.05 0.06 0.06 0.05 0.05 0.05 0.06
0.01 0.00 0.00 0.00 0.00 0.00 0.00 0.00 0.00 0.01 0.01 0.01 0.01 0.00 0.00 0.00 0.00 0.00 0.01 0.01 0.01 0.01 0.01 0.01 0.01 0.01 0.02 0.01 0.02 0.02 0.02 0.02 0.02 0.02 0.03 0.03 0.04 0.05 0.06 0.07 0.08 0.08 0.08 0.08
0.01 0.00 0.01 0.01 0.00 0.00 0.00 0.00 0.00 0.01 0.01 0.01 0.00 0.00 0.00 0.00 0.00 0.00 0.00 0.01 0.01 0.01 0.01 0.01 0.01 0.02 0.02 0.02 0.02 0.02 0.02 0.03 0.03 0.03 0.03 0.03 0.03 0.03 0.04 0.06 0.06 0.07 0.09 0.09
0.00 0.01 0.01 0.00 0.00 0.00 0.00 0.00 0.01 0.01 0.01 0.01 0.01 0.00 0.00 0.00 0.00 0.00 0.00 0.00 0.01 0.01 0.01 0.01 0.02 0.02 0.02 0.02 0.02 0.02 0.03 0.03 0.03 0.03 0.03 0.04 0.03 0.03 0.04 0.05 0.05 0.06 0.07 0.08
0.01 0.01 0.00 0.00 0.00 0.00 0.00 0.00 0.01 0.01 0.01 0.01 0.01 0.00 0.00 0.00 0.00 0.01 0.01 0.01 0.01 0.01 0.02 0.02 0.02 0.03 0.03 0.03 0.03 0.03 0.02 0.02 0.02 0.02 0.03 0.04 0.04 0.03 0.04 0.03 0.03 0.04 0.05 0.06
MSLP
1017.72 1017.93 1018.10 1018.24 1018.32 1018.31 1018.20 1017.98 1017.64 1017.21 1016.72 1016.25 1015.86 1015.63 1015.60 1015.80 1016.23 1016.88 1017.68 1018.58 1019.48 1020.34 1021.09 1021.71 1022.19 1022.54 1022.79 1022.95 1023.06 1023.13 1023.16 1023.13 1023.05 1022.89 1022.65 1022.32 1021.93 1021.48 1021.01 1020.53 1020.06 1019.60 1019.14 1018.67
1017.62 1017.75 1017.81 1017.81 1017.75 1017.61 1017.40 1017.10 1016.74 1016.33 1015.92 1015.56 1015.30 1015.20 1015.29 1015.59 1016.09 1016.77 1017.58 1018.45 1019.33 1020.15 1020.87 1021.47 1021.95 1022.31 1022.58 1022.76 1022.89 1022.97 1023.00 1022.98 1022.88 1022.70 1022.44 1022.09 1021.66 1021.18 1020.67 1020.15 1019.64 1019.14 1018.66 1018.18
1017.53 1017.55 1017.49 1017.34 1017.12 1016.85 1016.52 1016.16 1015.79 1015.42 1015.10 1014.87 1014.75 1014.79 1015.01 1015.41 1015.97 1016.68 1017.47 1018.32 1019.15 1019.92 1020.61 1021.20 1021.67 1022.04 1022.32 1022.52 1022.67 1022.76 1022.79 1022.75 1022.64 1022.44 1022.15 1021.77 1021.32 1020.81 1020.27 1019.72 1019.18 1018.66 1018.16 1017.67
1017.41 1017.31 1017.10 1016.80 1016.43 1016.02 1015.61 1015.20 1014.83 1014.53 1014.31 1014.21 1014.25 1014.43 1014.77 1015.26 1015.88 1016.60 1017.38 1018.18 1018.96 1019.69 1020.34 1020.89 1021.35 1021.73 1022.01 1022.23 1022.38 1022.47 1022.50 1022.44 1022.31 1022.09 1021.77 1021.37 1020.90 1020.38 1019.83 1019.27 1018.72 1018.19 1017.67 1017.17
1017.20 1016.97 1016.62 1016.17 1015.68 1015.17 1014.68 1014.25 1013.91 1013.69 1013.58 1013.62 1013.81 1014.14 1014.60 1015.17 1015.83 1016.55 1017.31 1018.06 1018.78 1019.45 1020.06 1020.58 1021.02 1021.38 1021.67 1021.89 1022.04 1022.12 1022.13 1022.05 1021.89 1021.65 1021.32 1020.91 1020.45 1019.93 1019.39 1018.85 1018.30 1017.77 1017.26 1016.75
1016.81 1016.47 1016.01 1015.45 1014.86 1014.28 1013.76 1013.34 1013.06 1012.92 1012.94 1013.12 1013.45 1013.90 1014.46 1015.10 1015.80 1016.52 1017.24 1017.94 1018.61 1019.22 1019.77 1020.26 1020.68 1021.03 1021.31 1021.52 1021.66 1021.72 1021.70 1021.60 1021.42 1021.16 1020.82 1020.42 1019.97 1019.49 1018.98 1018.47 1017.96 1017.45 1016.95 1016.43
1016.19 1015.78 1015.24 1014.62 1013.98 1013.38 1012.87 1012.50 1012.29 1012.25 1012.39 1012.70 1013.15 1013.71 1014.36 1015.05 1015.76 1016.47 1017.16 1017.81 1018.42 1018.99 1019.49 1019.95 1020.34 1020.68 1020.94 1021.14 1021.25 1021.29 1021.25 1021.12 1020.92 1020.64 1020.31 1019.93 1019.51 1019.08 1018.63 1018.17 1017.71 1017.23 1016.74 1016.22
1015.32 1014.87 1014.31 1013.68 1013.05 1012.48 1012.02 1011.72 1011.60 1011.67 1011.92 1012.34 1012.89 1013.54 1014.24 1014.97 1015.69 1016.38 1017.04 1017.66 1018.22 1018.74 1019.22 1019.64 1020.02 1020.33 1020.58 1020.76 1020.85 1020.86 1020.79 1020.64 1020.42 1020.14 1019.81 1019.46 1019.09 1018.71 1018.33 1017.93 1017.53 1017.10 1016.63 1016.12
1014.20 1013.77 1013.24 1012.65 1012.09 1011.59 1011.22 1011.01 1011.00 1011.17 1011.52 1012.03 1012.66 1013.36 1014.10 1014.85 1015.56 1016.24 1016.88 1017.46 1017.99 1018.49 1018.94 1019.34 1019.70 1020.01 1020.24 1020.39 1020.46 1020.45 1020.35 1020.17 1019.93 1019.65 1019.34 1019.02 1018.70 1018.38 1018.06 1017.73 1017.39 1017.01 1016.57 1016.08
1012.90 1012.53 1012.07 1011.59 1011.13 1010.75 1010.49 1010.40 1010.49 1010.75 1011.19 1011.76 1012.44 1013.17 1013.93 1014.67 1015.38 1016.05 1016.66 1017.22 1017.74 1018.22 1018.65 1019.05 1019.40 1019.69 1019.90 1020.04 1020.08 1020.04 1019.91 1019.71 1019.46 1019.18 1018.89 1018.59 1018.31 1018.05 1017.79 1017.52 1017.23 1016.90 1016.51 1016.04
1011.52 1011.23 1010.89 1010.54 1010.22 1009.98 1009.86 1009.89 1010.08 1010.43 1010.92 1011.53 1012.23 1012.97 1013.72 1014.46 1015.16 1015.81 1016.41 1016.96 1017.47 1017.94 1018.37 1018.76 1019.09 1019.37 1019.56 1019.67 1019.68 1019.61 1019.45 1019.24 1018.97 1018.69 1018.41 1018.14 1017.89 1017.67 1017.46 1017.25 1017.01 1016.73 1016.37 1015.94
1010.13 1009.96 1009.76 1009.57 1009.42 1009.33 1009.36 1009.50 1009.78 1010.19 1010.73 1011.35 1012.05 1012.79 1013.52 1014.24 1014.93 1015.57 1016.16 1016.71 1017.21 1017.67 1018.10 1018.47 1018.78 1019.03 1019.20 1019.27 1019.25 1019.14 1018.95 1018.71 1018.44 1018.15 1017.87 1017.62 1017.40 1017.22 1017.05 1016.87 1016.68 1016.44 1016.13 1015.75
1008.85 1008.80 1008.75 1008.72 1008.73 1008.81 1008.97 1009.22 1009.58 1010.05 1010.61 1011.24 1011.93 1012.65 1013.36 1014.06 1014.73 1015.36 1015.95 1016.49 1016.98 1017.43 1017.84 1018.18 1018.47 1018.67 1018.79 1018.82 1018.75 1018.60 1018.38 1018.12 1017.83 1017.54 1017.26 1017.03 1016.83 1016.67 1016.53 1016.39 1016.23 1016.03 1015.77 1015.44
1007.72 1007.79 1007.88 1008.01 1008.19 1008.41 1008.69 1009.05 1009.48 1009.99 1010.56 1011.20 1011.87 1012.57 1013.26 1013.94 1014.60 1015.22 1015.79 1016.33 1016.81 1017.23 1017.61 1017.91 1018.14 1018.29 1018.35 1018.32 1018.20 1018.00 1017.74 1017.45 1017.15 1016.85 1016.58 1016.36 1016.17 1016.03 1015.91 1015.80 1015.68 1015.52 1015.31 1015.04
1006.77 1006.95 1007.17 1007.45 1007.76 1008.11 1008.51 1008.96 1009.45 1009.99 1010.58 1011.21 1011.87 1012.55 1013.23 1013.90 1014.55 1015.16 1015.72 1016.24 1016.69 1017.09 1017.41 1017.66 1017.82 1017.90 1017.89 1017.78 1017.60 1017.35 1017.06 1016.74 1016.42 1016.13 1015.86 1015.65 1015.48 1015.35 1015.25 1015.17 1015.07 1014.95 1014.79 1014.58
1006.00 1006.26 1006.60 1007.00 1007.43 1007.90 1008.39 1008.91 1009.45 1010.03 1010.63 1011.27 1011.93 1012.60 1013.27 1013.93 1014.57 1015.17 1015.73 1016.22 1016.65 1017.00 1017.27 1017.45 1017.54 1017.53 1017.44 1017.26 1017.01 1016.72 1016.38 1016.04 1015.71 1015.41 1015.15 1014.95 1014.79 1014.68 1014.59 1014.53 1014.46 1014.38 1014.26 1014.11
1005.37 1005.72 1006.15 1006.65 1007.18 1007.73 1008.30 1008.87 1009.46 1010.07 1010.69 1011.34 1012.00 1012.68 1013.35 1014.02 1014.66 1015.26 1015.80 1016.28 1016.67 1016.98 1017.19 1017.29 1017.31 1017.22 1017.05 1016.80 1016.49 1016.15 1015.78 1015.42 1015.08 1014.77 1014.52 1014.32 1014.17 1014.07 1014.00 1013.95 1013.90 1013.85 1013.78 1013.68
1004.88 1005.29 1005.81 1006.37 1006.98 1007.60 1008.22 1008.85 1009.47 1010.10 1010.75 1011.41 1012.09 1012.77 1013.46 1014.13 1014.78 1015.38 1015.92 1016.38 1016.75 1017.01 1017.17 1017.22 1017.16 1017.01 1016.77 1016.46 1016.10 1015.71 1015.32 1014.93 1014.58 1014.27 1014.01 1013.81 1013.67 1013.56 1013.50 1013.46 1013.43 1013.40 1013.36 1013.31
1004.49 1004.98 1005.55 1006.18 1006.84 1007.50 1008.17 1008.82 1009.48 1010.13 1010.80 1011.48 1012.17 1012.88 1013.58 1014.27 1014.93 1015.54 1016.08 1016.53 1016.88 1017.12 1017.24 1017.24 1017.13 1016.93 1016.64 1016.28 1015.89 1015.47 1015.05 1014.64 1014.27 1013.95 1013.68 1013.47 1013.31 1013.20 1013.12 1013.08 1013.06 1013.04 1013.03 1013.02
1004.23 1004.78 1005.40 1006.08 1006.77 1007.47 1008.16 1008.84 1009.51 1010.19 1010.87 1011.57 1012.28 1013.01 1013.73 1014.44 1015.11 1015.73 1016.28 1016.73 1017.07 1017.29 1017.39 1017.37 1017.23 1016.99 1016.67 1016.29 1015.86 1015.42 1014.98 1014.55 1014.17 1013.82 1013.53 1013.29 1013.10 1012.97 1012.87 1012.81 1012.78 1012.77 1012.77 1012.79
1004.09 1004.70 1005.37 1006.08 1006.80 1007.51 1008.22 1008.91 1009.60 1010.29 1010.99 1011.71 1012.44 1013.18 1013.92 1014.65 1015.34 1015.97 1016.53 1016.98 1017.32 1017.54 1017.63 1017.59 1017.45 1017.20 1016.86 1016.46 1016.02 1015.56 1015.10 1014.66 1014.24 1013.86 1013.53 1013.25 1013.03 1012.85 1012.72 1012.63 1012.58 1012.57 1012.58 1012.61
1004.09 1004.75 1005.46 1006.20 1006.93 1007.66 1008.38 1009.09 1009.79 1010.49 1011.21 1011.94 1012.69 1013.44 1014.20 1014.94 1015.64 1016.28 1016.83 1017.29 1017.64 1017.85 1017.95 1017.91 1017.77 1017.52 1017.18 1016.78 1016.33 1015.86 1015.38 1014.91 1014.46 1014.05 1013.67 1013.34 1013.07 1012.84 1012.66 1012.54 1012.46 1012.43 1012.44 1012.48
1004.20 1004.92 1005.66 1006.42 1007.17 1007.91 1008.64 1009.36 1010.08 1010.81 1011.54 1012.29 1013.05 1013.82 1014.59 1015.33 1016.03 1016.67 1017.22 1017.68 1018.02 1018.24 1018.33 1018.31 1018.17 1017.92 1017.59 1017.19 1016.74 1016.26 1015.77 1015.27 1014.79 1014.34 1013.92 1013.54 1013.21 1012.93 1012.71 1012.54 1012.43 1012.37 1012.37 1012.41
1004.41 1005.17 1005.94 1006.71 1007.49 1008.25 1008.99 1009.74 1010.48 1011.23 1012.00 1012.77 1013.55 1014.33 1015.10 1015.84 1016.53 1017.16 1017.70 1018.14 1018.47 1018.68 1018.77 1018.74 1018.61 1018.37 1018.05 1017.65 1017.21 1016.72 1016.22 1015.71 1015.20 1014.71 1014.25 1013.83 1013.45 1013.13 1012.86 1012.65 1012.50 1012.42 1012.40 1012.43
1004.66 1005.45 1006.24 1007.04 1007.83 1008.62 1009.40 1010.18 1010.97 1011.76 1012.56 1013.37 1014.17 1014.96 1015.73 1016.46 1017.13 1017.73 1018.25 1018.66 1018.97 1019.16 1019.23 1019.20 1019.06 1018.83 1018.51 1018.13 1017.69 1017.21 1016.70 1016.18 1015.66 1015.15 1014.67 1014.22 1013.81 1013.45 1013.14 1012.90 1012.72 1012.61 1012.56 1012.57
1004.91 1005.71 1006.51 1007.33 1008.16 1008.98 1009.82 1010.66 1011.50 1012.35 1013.20 1014.05 1014.88 1015.68 1016.45 1017.16 1017.81 1018.37 1018.84 1019.22 1019.48 1019.64 1019.69 1019.64 1019.49 1019.26 1018.96 1018.58 1018.16 1017.69 1017.20 1016.69 1016.17 1015.67 1015.18 1014.72 1014.29 1013.91 1013.59 1013.32 1013.12 1012.97 1012.89 1012.87
1005.11 1005.91 1006.73 1007.57 1008.43 1009.31 1010.21 1011.12 1012.04 1012.96 1013.87 1014.77 1015.63 1016.45 1017.21 1017.90 1018.51 1019.03 1019.45 1019.77 1019.99 1020.10 1020.12 1020.05 1019.90 1019.67 1019.37 1019.02 1018.61 1018.18 1017.71 1017.23 1016.74 1016.25 1015.78 1015.33 1014.91 1014.53 1014.20 1013.91 1013.68 1013.51 1013.39 1013.32
Thickness
5661 5662 5661 5661 5663 5664 5665 5668 5666 5674 5675 5680 5682 5680 5679 5678 5676 5674 5673 5673 5671 5670 5669 5668 5666 5665 5664 5661 5660 5657 5655 5652 5650 5648 5646 5644 5642 5640 5638 5637 5636 5634 5632 5629
5651 5654 5654 5652 5657 5660 5661 5663 5665 5666 5668 5677 5677 5676 5674 5673 5670 5668 5667 5667 5666 5666 5664 5663 5662 5660 5658 5656 5654 5653 5650 5647 5645 5642 5640 5638 5636 5634 5632 5630 5629 5627 5626 5623
5644 5648 5647 5646 5657 5658 5659 5663 5662 5660 5665 5668 5667 5667 5667 5667 5665 5663 5663 5662 5661 5661 5660 5658 5657 5656 5653 5651 5649 5647 5645 5642 5639 5637 5634 5632 5630 5628 5626 5624 5622 5620 5619 5617
5636 5636 5629 5653 5659 5659 5656 5658 5660 5659 5660 5661 5661 5662 5663 5662 5660 5659 5658 5657 5656 5656 5654 5653 5651 5649 5647 5644 5642 5640 5639 5636 5634 5631 5628 5626 5624 5621 5620 5619 5616 5614 5612 5610
5628 5628 5636 5647 5650 5650 5648 5648 5655 5654 5654 5655 5655 5655 5658 5657 5655 5654 5653 5652 5651 5650 5648 5647 5645 5642 5640 5637 5636 5634 5632 5630 5628 5625 5623 5620 5618 5615 5614 5612 5610 5608 5606 5604
5621 5620 5626 5642 5647 5647 5644 5640 5651 5651 5649 5648 5648 5645 5651 5651 5648 5646 5645 5644 5643 5642 5641 5639 5637 5635 5633 5631 5629 5627 5625 5623 5621 5619 5617 5614 5612 5610 5608 5606 5603 5601 5599 5598
5620 5619 5629 5640 5640 5639 5629 5638 5643 5643 5643 5643 5643 5645 5645 5644 5641 5639 5637 5635 5634 5633 5632 5630 5629 5627 5625 5623 5621 5619 5617 5616 5614 5612 5610 5608 5606 5604 5602 5600 5597 5595 5593 5591
5614 5612 5620 5631 5629 5630 5634 5638 5637 5636 5636 5635 5636 5637 5636 5634 5632 5630 5629 5627 5626 5625 5623 5622 5621 5619 5617 5615 5613 5611 5609 5608 5606 5605 5603 5601 5599 5597 5595 5592 5590 5588 5586 5584
5616 5618 5623 5624 5624 5626 5628 5629 5629 5629 5629 5627 5626 5626 5627 5625 5624 5622 5621 5619 5617 5616 5615 5613 5612 5611 5609 5607 5604 5602 5601 5600 5599 5598 5596 5594 5592 5590 5587 5585 5583 5581 5578 5576
5609 5614 5616 5616 5617 5618 5619 5620 5621 5622 5621 5620 5619 5619 5619 5618 5617 5615 5613 5611 5608 5607 5606 5605 5603 5602 5600 5598 5595 5594 5594 5593 5592 5590 5589 5587 5584 5583 5580 5577 5575 5573 5571 5568
5604 5609 5610 5611 5611 5611 5611 5613 5612 5612 5612 5612 5611 5611 5612 5611 5610 5607 5604 5602 5600 5598 5597 5596 5594 5592 5590 5588 5587 5586 5586 5585 5583 5582 5580 5578 5576 5573 5571 5569 5567 5564 5563 5560
5601 5607 5605 5607 5607 5605 5604 5604 5604 5604 5604 5604 5604 5604 5604 5604 5601 5599 5596 5594 5592 5590 5589 5588 5586 5583 5581 5579 5578 5577 5577 5576 5574 5572 5570 5569 5567 5564 5558 5557 5554 5552 5550 5548
5600 5601 5600 5600 5599 5598 5597 5597 5597 5597 5597 5597 5597 5596 5595 5594 5592 5590 5588 5586 5585 5583 5581 5580 5577 5575 5573 5571 5569 5568 5567 5566 5565 5563 5562 5561 5559 5558 5555 5550 5546 5543 5541 5539
5593 5592 5592 5592 5591 5590 5589 5589 5589 5590 5590 5590 5589 5588 5587 5585 5584 5582 5580 5579 5577 5575 5573 5571 5569 5567 5564 5562 5560 5560 5559 5556 5555 5554 5553 5552 5551 5550 5549 5547 5544 5541 5535 5532
5586 5586 5587 5586 5584 5582 5581 5581 5581 5581 5581 5581 5580 5579 5578 5577 5576 5574 5572 5570 5569 5567 5565 5563 5561 5559 5556 5554 5552 5551 5550 5548 5546 5545 5544 5543 5542 5541 5540 5538 5536 5534 5531 5526
5580 5579 5579 5578 5577 5575 5574 5573 5573 5574 5574 5573 5572 5571 5570 5569 5567 5566 5564 5562 5561 5560 5558 5555 5553 5551 5548 5546 5544 5543 5541 5538 5536 5536 5535 5534 5533 5532 5531 5529 5528 5525 5523 5519
5573 5573 5573 5572 5571 5569 5568 5568 5567 5567 5566 5566 5564 5563 5561 5560 5559 5558 5556 5554 5553 5552 5550 5548 5546 5543 5540 5538 5536 5535 5533 5530 5526 5527 5526 5525 5524 5523 5521 5520 5518 5516 5513 5510
5569 5569 5569 5568 5565 5563 5562 5560 5559 5559 5558 5557 5556 5554 5553 5552 5552 5550 5548 5546 5544 5543 5541 5539 5537 5534 5532 5530 5528 5527 5525 5523 5520 5519 5518 5516 5515 5513 5512 5510 5508 5506 5504 5501
5561 5561 5561 5559 5558 5556 5554 5553 5552 5551 5550 5549 5547 5546 5545 5543 5542 5541 5539 5537 5536 5534 5533 5530 5527 5525 5523 5521 5518 5518 5516 5514 5512 5511 5509 5506 5504 5503 5502 5501 5499 5497 5495 5493
5553 5552 5551 5550 5549 5547 5546 5545 5544 5543 5542 5540 5538 5537 5535 5534 5533 5532 5530 5528 5527 5526 5524 5521 5518 5517 5515 5513 5509 5508 5507 5506 5504 5502 5500 5498 5496 5494 5493 5492 5490 5488 5486 5484
5545 5544 5543 5542 5540 5539 5538 5537 5536 5534 5533 5531 5529 5528 5527 5526 5523 5522 5521 5519 5518 5515 5513 5510 5509 5508 5506 5503 5500 5500 5498 5497 5495 5494 5492 5490 5488 5486 5485 5483 5481 5479 5477 5475
5538 5537 5536 5534 5533 5531 5530 5528 5527 5525 5524 5522 5521 5519 5517 5516 5514 5512 5512 5510 5508 5504 5503 5502 5500 5498 5496 5493 5492 5491 5490 5488 5487 5485 5483 5481 5479 5478 5476 5474 5472 5470 5468 5466
5530 5529 5528 5526 5525 5523 5521 5520 5518 5516 5515 5514 5512 5510 5509 5507 5506 5504 5504 5502 5499 5496 5495 5494 5491 5489 5486 5485 5485 5483 5481 5480 5478 5476 5473 5471 5470 5468 5467 5465 5463 5461 5459 5457
5521 5520 5519 5518 5516 5514 5513 5512 5509 5508 5506 5504 5503 5501 5499 5498 5497 5495 5494 5491 5488 5486 5487 5484 5481 5480 5478 5478 5477 5475 5473 5471 5469 5467 5464 5462 5461 5459 5457 5455 5453 5452 5450 5448
5512 5511 5510 5509 5508 5507 5505 5503 5501 5499 5497 5496 5494 5492 5490 5489 5488 5486 5484 5482 5479 5478 5478 5476 5473 5471 5471 5470 5469 5467 5464 5462 5460 5458 5456 5453 5452 5450 5448 5446 5444 5443 5441 5439
5503 5502 5501 5500 5499 5497 5496 5494 5492 5491 5489 5487 5485 5483 5482 5480 5478 5476 5474 5473 5471 5469 5468 5466 5465 5463 5462 5461 5459 5457 5455 5453 5450 5448 5446 5444 5443 5441 5439 5437 5435 5434 5432 5431
5494 5493 5491 5491 5489 5488 5486 5485 5483 5482 5480 5478 5476 5474 5473 5471 5469 5467 5465 5463 5462 5460 5459 5457 5455 5454 5452 5450 5448 5446 5444 5442 5440 5439 5437 5435 5433 5432 5430 5428 5426 5425 5423 5421